Location: Bednik
(45.3500°N, 16.3833°E)
Time: 16:38:46
(UTC+00:00)

Lacrosse 4 Rocket - Pass Details

Date: 08 August 2020
Orbit: 544 x 615 km, 68.0° (Epoch: 18 September)

Event Time Altitude Azimuth Distance (km) Brightness Sun altitude
Exits shadow 22:45:20 34° 30° (NNE) 969 2.9 -28.8°
Drops below altitude 10° 22:47:44 10° 31° (NNE) 1,879 4.7 -28.8°
Sets 22:49:56 0° 31° (NNE) 2,769 5.7 -28.8°
